User: anonymous   Login
Location: Caltech
(34.1382°N, 118.1253°W)
Time: 02:57:14
(UTC-07:00)
Language:

Hubble Space Telescope - Orbit

View from above orbital plane
View from above orbital plane
View from above satellite
View from above satellite

Ground track
Ground track

The orbit data is extracted from the following two-line orbital elements,

1 20580U 90037B   16148.13716251  .00000740  00000-0  35204-4 0  9999
2 20580  28.4708  37.7266 0002694 345.3423 142.4862 15.08368482231932
Epoch (UTC): 27 May 2016 03:17:30
Eccentricity: 0.0002694
inclination: 28.4708°
perigee height: 539 km
apogee height: 543 km
right ascension of ascending node: 37.7266°
argument of perigee: 345.3423°
revolutions per day: 15.08368482
mean anomaly at epoch: 142.4862°
orbit number at epoch: 23193

The dashed part of the orbit path shows where the satellite is in the earth's shadow,  

DLR